Weather WX

World > North America > United States > Ohio

Little London, Ohio Regional Weather

Lat: 40.88N, Lon: 82.65W
Wx Zone: OHZ029
Warning FLW WEATHER ALERT - (More Info. Click Here) Warning
Feedback

Little London, OH Regional Weather

Expires:201906242100;;017118
ASUS41 KCLE 242012
RWRCLE
OHIO REGIONAL WEATHER ROUNDUP
NATIONAL WEATHER SERVICE WILMINGTON, OH
400 PM EDT MON JUN 24 2019

NOTE: "FAIR" INDICATES FEW OR NO CLOUDS BELOW 12,000 FEET WITH NO
SIGNIFICANT WEATHER AND/OR OBSTRUCTIONS TO VISIBILITY.


OHZ009>014-019>023-028>033-038-089-242100-
   NORTHEAST OHIO
  
CITY           SKY/WX    TMP DP  RH WIND       PRES   REMARKS
CLE-HOPKINS    PTSUNNY   83  66  56 SW10G21   29.73F                  
CLE-LAKEFRONT  PTSUNNY   82  65  56 S14G20    29.70F                  
CUY CO. ARPT   CLOUDY    82  70  65 SW10G20   29.73F                  
LORAIN-ELYRIA  PTSUNNY   82  61  48 SW13      29.72F                  
ASHTABULA      FAIR      83  67  58 SW14      29.75F                  
AKRON-CANTON   PTSUNNY   83  67  58 S13       29.76F                  
WOOSTER        PTSUNNY   82  69  64 S12       29.74F                  
MANSFIELD      CLOUDY    80  67  64 SW9       29.75F                  
YOUNGSTOWN     PTSUNNY   86  66  51 S10       29.76F                  
$$
 

SKY/WX - Weather  TMP - Temperature  DP - Dew Point  RH - Relative Humidity
WIND - Wind Direction/Speed PRES - Barometric Pressure VSB - Visibility
WCI - Wind Chill Index E13G22 Wind - East Wind 13 mph/Gusts of 22 mph